Regional Weather Roundup
Issued by NWS Bismarck, ND

Home | Current Version | Previous Version | Text Only | Print | Product List | Glossary On
Versions: 1 2 3 4 5 6 7 8 9 10 11 12 13 14 15 16 17 18 19 20 21 22 23 24 25 26 27 28 29 30 31 32 33 34 35 36 37 38 39 40 41 42 43 44 45 46 47 48 49 50
000
ASUS43 KBIS 250910
RWRBIS

NWR BROADCAST TEXT
NATIONAL WEATHER SERVICE BISMARCK ND
400 AM CDT SAT MAR 25 2017

NOTE: "FAIR" INDICATES FEW OR NO CLOUDS BELOW 12,000 FEET WITH NO
SIGNIFICANT WEATHER AND/OR OBSTRUCTIONS TO VISIBILITY.


CITY           SKY/WX    TMP DP  RH WIND       PRES   REMARKS
WILLISTON      FAIR      43  32  65 SE8G20    29.86F
MINOT          CLOUDY    32  30  92 SE12      30.02F
MINOT AFB      CLOUDY    31  30  97 SE16      30.02F WCI  20
BISMARCK       CLOUDY    31  29  92 SE8       30.10F
DICKINSON      FAIR      34  30  85 SE20      29.91F
GARRISON         N/A     30  29  96 SE17      30.02F WCI  18
HETTINGER ARPT FAIR      34  30  85 SE13      29.97F
JAMESTOWN      FAIR      26  25  96 CALM      30.13F
HAZEN          FAIR      32  30  93 VRB5      30.04F
LINTON         FOG       30  30 100 SE7G15    30.11F VSB 1
MANDAN         PTSUNNY   28  28 100 SE8       30.07F
RUGBY            N/A     27  28 100 SE13      30.09F WCI  16
STANLEY        FAIR      32  32 100 SE13G18   29.97F
TIOGA          FAIR      34  34 100 SE21G29   29.91F
WATFORD CITY   FAIR      41  32  70 SE12G18   29.88F
$$

CITY           SKY/WX    TMP DP  RH WIND       PRES   REMARKS
GRAND FORKS    FAIR      27  26  96 CALM      30.18F
GRAND FORKS AF FOG       25  25 100 CALM      30.18F VSB 3/4
DEVILS LAKE    CLOUDY    28  26  92 S8        30.15F WCI  20
FARGO          FAIR      28  26  92 E5        30.18F
CAVALIER         N/A     27  27 100 CALM      30.18F
GRAFTON        FAIR      27  27 100 CALM      30.21F
GWINNER        SUNNY     25  25 100 MISG      30.16F
LANGDON        FAIR      23  23 100 SE6       30.14F WCI  16
ROLLA          CLOUDY    27  27 100 S15       30.10F WCI  15
$$

CITY           SKY/WX    TMP DP  RH WIND       PRES   REMARKS
ABERDEEN       CLOUDY    29  26  89 NE3       30.15F
MOBRIDGE       FAIR      30  25  81 E9        30.06F
BUFFALO          N/A     40  31  70 SE21      29.83F
RAPID CITY     FAIR      39  29  67 S14       29.99F
GLASGOW        FAIR      49  31  49 S7        29.75R
SIDNEY         FAIR      44  33  65 S14       29.83F
WOLF POINT     CLOUDY    51  35  54 SE5       29.77S
GLENDIVE       FAIR      47  34  60 S15       29.83F
MILES CITY     FAIR      49  31  49 S12       29.81R
BAKER          FAIR      43  32  65 SE17      29.86F
$$

CITY           SKY/WX    TMP DP  RH WIND       PRES   REMARKS
BILLINGS       MOCLDY    52  29  41 SW13      29.84R
GREAT FALLS    FAIR      44  29  55 SW16      29.87R
REGINA         CLOUDY    36  32  87 SE25      29.77F
ESTEVAN        MOCLDY    34  32  93 SE15G21   29.89F
$$





USA.gov is the U.S. government's official web portal to all federal, state and local government web resources and services.